Torna al catalogo

STARLINK-5667

AttivoComunicazioniVLEO
NORAD 55337·PAYLOAD·🇺🇸 United States

Lanciato Jan 26, 2023 da Cape Canaveral Space Force Station

Loading…

Prossimi Passaggi (prossime 24 ore)

TLE

AggiornatoSource: CelesTrak SupGP

Epoca: Sep 15, 2026, 02:33 UTC

1 55337C 23013G   26258.10673611  .00016661  00000+0  60294-3 0  2581
2 55337  43.0009 299.4008 0001100 244.8145 226.0941 15.27599236    17

Traccia STARLINK-5667 in tempo reale con AllMySat

Download on the App Store